Location: Unspecified
(51.0950°N, 12.9690°E)
Time: 20:40:48
(UTC+00:00)

JY1SAT - Pass Details

Date: 30 April 2024
Orbit: 538 x 552 km, 97.5° (Epoch: 25 May)

Event Time Altitude Azimuth Distance (km) Brightness Sun altitude
Exits shadow 19:55:28 14° 164° (SSE) 1,559 ? -12.0°
Maximum altitude 19:58:47 88° 81° (E) 552 ? -12.3°
Drops below altitude 10° 20:02:43 10° 347° (NNW) 1,818 ? -12.8°
Sets 20:04:51 0° 347° (NNW) 2,713 ? -13.0°
